[[{"header":{"parameterUnit":"m.s-1","parameterCategory":1,"la1":30.2991,"la2":30.254,"lo1":-89.0895,"lo2":-89.0444,"dy":0.0017,"dx":0.0017,"nx":28,"ny":28,"refTime":"2025-07-24T21:00:00:Z","depth":0,"parameterNumber":2,"parameterNumberName":"U-component_of_WINDS"},"data":[0,0,0,0,0,0,0,0,0,0,0,0,0,0,0,0,0,0,0,0,0,0,0,0,0,0,0,0,0,0,0,0,0,0,0,0,0,0,0,0,0,0,0,0,0,0,0,0,0,0,0,0,0,0,0,0,0,0,-0.4325,-0.4325,0,-0.4345,-0.4345,-0.4346,-0.4352,-0.4352,-0.4352,-0.4352,-0.4374,-0.4375,-0.4375,0,0,0,0,0,0,0,0,0,0,0,0,0,-0.4293,-0.4293,-0.4325,-0.4325,-0.4325,-0.4345,-0.4345,-0.4346,-0.4352,-0.4352,-0.4352,-0.4352,-0.4374,-0.4374,-0.4375,0,0,0,0,0,0,0,0,0,0,0,0,0,-0.4309,-0.4293,-0.4325,-0.4331,-0.4332,-0.4345,-0.4345,-0.4346,-0.4352,-0.4352,-0.4352,-0.4352,-0.4373,-0.4374,-0.4375,-0.4384,0,0,-0.4378,-0.4379,0,0,0,0,0,0,0,0,-0.4308,-0.431,-0.433,-0.433,-0.4331,-0.4346,-0.4342,-0.4359,-0.4352,-0.4344,-0.4352,-0.4352,-0.4365,-0.4366,-0.4371,-0.4385,-0.4386,-0.4379,-0.4379,-0.438,-0.438,0,0,0,0,0,0,0,-0.4307,-0.4309,-0.4333,-0.433,-0.4331,-0.4333,-0.4335,-0.4345,-0.4355,-0.4345,-0.4346,-0.4348,-0.4365,-0.437,-0.4371,-0.4387,-0.4379,-0.4379,-0.438,-0.438,-0.4411,-0.4411,0,0,0,0,0,0,-0.4305,-0.4308,-0.4332,-0.4333,-0.4319,-0.4334,-0.4336,-0.4341,-0.4355,-0.4357,-0.4348,-0.4348,-0.4368,-0.437,-0.4372,-0.4384,-0.438,-0.4381,-0.4381,-0.4411,-0.4411,-0.4411,0,0,0,0,0,0,-0.4304,-0.4307,-0.4331,-0.4321,-0.4324,-0.4334,-0.434,-0.4342,-0.4346,-0.4357,-0.4359,-0.4351,-0.4368,-0.4371,-0.4381,-0.4385,-0.4381,-0.4382,-0.4411,-0.4411,-0.4411,-0.4408,0,0,0,0,0,0,-0.4303,-0.4306,-0.431,-0.4321,-0.4325,-0.434,-0.434,-0.4342,-0.4348,-0.4348,-0.436,-0.4362,-0.4368,-0.438,-0.4382,-0.4386,-0.4383,-0.441,-0.4411,-0.4411,-0.4408,-0.4408,-0.4408,0,0,0,0,0,-0.4302,-0.4308,-0.431,-0.4312,-0.4329,-0.434,-0.4342,-0.4349,-0.4348,-0.4352,-0.4359,-0.4362,-0.4384,-0.4381,-0.4384,-0.4388,-0.441,-0.4411,-0.4411,-0.4407,-0.4408,-0.4408,0,0,0,0,0,0,-0.4296,-0.4309,-0.4312,-0.4321,-0.433,-0.4341,-0.4346,-0.4349,-0.4357,-0.4357,-0.4365,-0.4368,-0.4379,-0.4384,-0.4381,-0.4398,-0.4397,-0.4398,-0.4394,-0.4394,-0.4394,-0.4393,-0.4384,0,0,0,0,0,-0.4296,-0.4304,-0.4315,-0.4322,-0.4327,-0.4335,-0.434,-0.4345,-0.4354,-0.4357,-0.4365,-0.4374,-0.4383,-0.4389,-0.4398,-0.4409,-0.4412,-0.4413,-0.4413,-0.4413,-0.4414,-0.4421,-0.4422,-0.4413,-0.4413,-0.4413,0,0,-0.4296,-0.4304,-0.4308,-0.4322,-0.4328,-0.4337,-0.4338,-0.4347,-0.4353,-0.4359,-0.4369,-0.4376,-0.4386,-0.4397,-0.4402,-0.4402,-0.4417,-0.4414,-0.4414,-0.4415,-0.4422,-0.4422,-0.4423,-0.4413,-0.4413,-0.4413,0,0,-0.43,-0.4307,-0.4314,-0.4321,-0.4331,-0.4337,-0.4339,-0.4351,-0.4355,-0.4366,-0.4371,-0.4378,-0.4394,-0.4401,-0.4407,-0.4415,-0.4418,-0.4418,-0.4419,-0.4426,-0.4426,-0.4427,-0.443,-0.4431,-0.4419,-0.4419,-0.4419,0,-0.4299,-0.4311,-0.4317,-0.4326,-0.4332,-0.4337,-0.4345,-0.4352,-0.4365,-0.4369,-0.4369,-0.4389,-0.4396,-0.4409,-0.4411,-0.4416,-0.4418,-0.4416,-0.4426,-0.4426,-0.4427,-0.443,-0.4431,-0.4418,-0.4418,-0.4418,-0.4418,0,-0.4309,-0.4317,-0.4322,-0.4334,-0.434,-0.4348,-0.4357,-0.4363,-0.4367,-0.4373,-0.4385,-0.4394,-0.4405,-0.4409,-0.4413,-0.4423,-0.4423,-0.4424,-0.4423,-0.4428,-0.4431,-0.4432,-0.4418,-0.4418,-0.4418,-0.4418,0,0,-0.4309,-0.4325,-0.4327,-0.4333,-0.4345,-0.4352,-0.4361,-0.4372,-0.4377,-0.4386,-0.4394,-0.4407,-0.4408,-0.4415,-0.442,-0.4426,-0.4432,-0.4427,-0.4427,-0.4427,-0.4444,-0.4443,-0.4444,-0.4434,-0.4435,-0.4435,-0.4443,0,-0.4314,-0.433,-0.4337,-0.4349,-0.4357,-0.4363,-0.4371,-0.438,-0.4386,-0.4394,-0.4402,-0.4411,-0.4412,-0.4416,-0.4422,-0.443,-0.4436,-0.443,-0.4442,-0.4442,-0.4439,-0.4446,-0.4444,-0.4452,-0.4444,-0.4445,-0.4445,0,-0.4323,-0.4332,-0.4345,-0.4357,-0.4361,-0.4367,-0.4378,-0.4386,-0.4396,-0.4401,-0.4408,-0.4413,-0.4424,-0.4423,-0.4437,-0.4433,-0.4439,-0.4443,-0.4444,-0.4445,-0.4444,-0.4447,-0.4454,-0.4455,-0.4447,-0.4447,-0.4446,0,-0.4322,-0.4337,-0.4347,-0.4352,-0.4366,-0.4371,-0.4377,-0.4388,-0.4394,-0.4404,-0.4408,-0.4419,-0.4425,-0.4434,-0.4442,-0.444,-0.4455,-0.4455,-0.446,-0.4459,-0.4462,-0.4462,-0.447,-0.4466,-0.4466,-0.4466,-0.4466,0,-0.4327,-0.4335,-0.4347,-0.4353,-0.4363,-0.4371,-0.438,-0.4387,-0.4396,-0.4404,-0.441,-0.4418,-0.4428,-0.4437,-0.4444,-0.4455,-0.4457,-0.4461,-0.4463,-0.4461,-0.446,-0.4464,-0.4464,-0.4466,-0.4466,-0.4466,-0.4466,0,-0.4327,-0.4336,-0.4347,-0.436,-0.4364,-0.437,-0.4381,-0.4388,-0.4395,-0.4405,-0.4408,-0.4419,-0.443,-0.4439,-0.4453,-0.4458,-0.4469,-0.4471,-0.4466,-0.4466,-0.447,-0.447,-0.4482,-0.4484,-0.4478,-0.4478,-0.4478,0,-0.433,-0.4336,-0.435,-0.4356,-0.4362,-0.4371,-0.4378,-0.4386,-0.4393,-0.4406,-0.4411,-0.4423,-0.4432,-0.445,-0.4459,-0.447,-0.4473,-0.4476,-0.4474,-0.4472,-0.4473,-0.4472,-0.4473,-0.4476,-0.4476,-0.4476,-0.4476,0,-0.4334,-0.4338,-0.4347,-0.4358,-0.4366,-0.4375,-0.4384,-0.4389,-0.4399,-0.4407,-0.4418,-0.4425,-0.444,-0.4452,-0.4464,-0.4471,-0.4476,-0.4477,-0.4478,-0.4476,-0.4472,-0.4475,-0.4466,-0.4476,-0.4476,-0.4476,-0.4476,-0.4476,-0.4336,-0.4342,-0.4353,-0.4363,-0.4371,-0.4379,-0.4386,-0.4394,-0.4404,-0.4416,-0.4421,-0.4433,-0.4444,-0.4461,-0.4469,-0.4478,-0.4479,-0.4481,-0.4482,-0.4482,-0.4482,-0.4471,-0.448,-0.448,-0.448,-0.448,-0.4481,0,-0.4341,-0.4348,-0.4357,-0.437,-0.4378,-0.4382,-0.4392,-0.4399,-0.4409,-0.4419,-0.4428,-0.4442,-0.4453,-0.4464,-0.4476,-0.4482,-0.4484,-0.4484,-0.4484,-0.4486,-0.448,-0.4478,-0.4482,-0.4482,-0.4482,-0.4482,-0.4482,-0.4482,-0.4344,-0.4354,-0.436,-0.4375,-0.4382,-0.4394,-0.4399,-0.4408,-0.4416,-0.443,-0.4439,-0.4446,-0.4457,-0.447,-0.4481,-0.4484,-0.4488,-0.4488,-0.4491,-0.4486,-0.4486,-0.4486,-0.4483,-0.4489,-0.4489,-0.4496,-0.4496,-0.4496]},{"header":{"parameterUnit":"m.s-1","parameterCategory":1,"la1":30.2991,"la2":30.254,"lo1":-89.0895,"lo2":-89.0444,"dy":0.0017,"dx":0.0017,"nx":28,"ny":28,"refTime":"2025-07-24T21:00:00:Z","depth":0,"parameterNumber":3,"parameterNumberName":"V-component_of_WINDS"},"data":[0,0,0,0,0,0,0,0,0,0,0,0,0,0,0,0,0,0,0,0,0,0,0,0,0,0,0,0,0,0,0,0,0,0,0,0,0,0,0,0,0,0,0,0,0,0,0,0,0,0,0,0,0,0,0,0,0,0,3.022,3.0221,0,3.0235,3.0235,3.0235,3.0216,3.0215,3.0214,3.0214,3.0228,3.0229,3.0231,0,0,0,0,0,0,0,0,0,0,0,0,0,3.0177,3.0178,3.022,3.0221,3.0221,3.0235,3.0235,3.0235,3.0216,3.0215,3.0214,3.0213,3.0228,3.0229,3.0231,0,0,0,0,0,0,0,0,0,0,0,0,0,3.0194,3.0178,3.022,3.0213,3.0212,3.0235,3.0235,3.0235,3.0216,3.0215,3.0214,3.0213,3.0228,3.0229,3.0231,3.0261,0,0,3.0236,3.0236,0,0,0,0,0,0,0,0,3.0193,3.0196,3.0214,3.0213,3.0213,3.0222,3.0225,3.0244,3.0216,3.0215,3.0214,3.0212,3.0227,3.0229,3.0234,3.0262,3.0263,3.0236,3.0237,3.0237,3.0238,0,0,0,0,0,0,0,3.0192,3.0195,3.0226,3.0214,3.0213,3.0209,3.021,3.0228,3.0227,3.0215,3.0213,3.0215,3.0227,3.0232,3.0234,3.0263,3.0236,3.0237,3.0238,3.0239,3.0317,3.0318,0,0,0,0,0,0,3.0192,3.0194,3.0226,3.0226,3.02,3.0211,3.0212,3.022,3.0226,3.0226,3.0216,3.0214,3.023,3.0232,3.0234,3.0271,3.0237,3.0239,3.024,3.0316,3.0318,3.0319,0,0,0,0,0,0,3.0191,3.0195,3.0225,3.021,3.0213,3.0212,3.0222,3.0221,3.0227,3.0227,3.0227,3.0222,3.0229,3.0232,3.0255,3.0271,3.0239,3.0241,3.0315,3.0317,3.0318,3.0344,0,0,0,0,0,0,3.019,3.0195,3.0206,3.021,3.0214,3.0245,3.0223,3.0222,3.0229,3.0227,3.0233,3.0233,3.0229,3.0253,3.0256,3.0273,3.0242,3.0313,3.0316,3.0318,3.0341,3.0346,3.035,0,0,0,0,0,3.0188,3.0212,3.0207,3.021,3.0228,3.0246,3.0248,3.0243,3.0231,3.0242,3.0243,3.0233,3.0269,3.0255,3.0259,3.0276,3.0312,3.0315,3.0318,3.034,3.0345,3.035,0,0,0,0,0,0,3.021,3.0213,3.0206,3.0233,3.0239,3.0243,3.0257,3.0249,3.0259,3.0257,3.025,3.0252,3.0276,3.0278,3.0263,3.0306,3.0289,3.0292,3.0304,3.0309,3.0314,3.0313,3.0243,0,0,0,0,0,3.0217,3.0231,3.0233,3.0256,3.026,3.0258,3.0265,3.0261,3.0267,3.027,3.0272,3.0279,3.0292,3.0301,3.0313,3.0342,3.0343,3.0356,3.036,3.0364,3.0367,3.0383,3.0389,3.0327,3.0327,3.0327,0,0,3.0234,3.0237,3.0246,3.0261,3.0265,3.028,3.026,3.0277,3.0288,3.0273,3.0294,3.0296,3.0303,3.033,3.0341,3.0332,3.0384,3.0367,3.037,3.0371,3.0386,3.0392,3.0397,3.0329,3.0329,3.0329,0,0,3.0271,3.0275,3.0294,3.03,3.0307,3.0305,3.031,3.0315,3.0316,3.0337,3.0327,3.034,3.0362,3.0368,3.0374,3.0414,3.0405,3.0418,3.0441,3.0457,3.0462,3.0466,3.0481,3.0486,3.0421,3.0421,3.0421,0,3.029,3.0312,3.0306,3.0323,3.033,3.0317,3.0337,3.0343,3.0353,3.0359,3.0349,3.0377,3.0381,3.0408,3.0418,3.0423,3.0429,3.0417,3.0462,3.0466,3.047,3.0484,3.0489,3.0423,3.0423,3.0423,3.0423,0,3.0335,3.035,3.0365,3.0376,3.0385,3.0404,3.0401,3.0411,3.0406,3.0405,3.0428,3.0432,3.0445,3.0452,3.0447,3.0479,3.0473,3.0463,3.0445,3.0477,3.049,3.0496,3.0425,3.0425,3.0424,3.0424,0,0,3.0386,3.0394,3.0399,3.0404,3.0412,3.0423,3.0442,3.0455,3.0463,3.0471,3.0487,3.0506,3.0497,3.0503,3.0499,3.0513,3.0546,3.0501,3.0501,3.0509,3.0582,3.0591,3.0597,3.054,3.0541,3.0542,3.0582,0,3.0423,3.0455,3.045,3.0481,3.0495,3.0484,3.05,3.0506,3.0507,3.0519,3.052,3.0534,3.052,3.0524,3.0538,3.0539,3.056,3.0536,3.0555,3.0556,3.0554,3.0604,3.0612,3.065,3.0587,3.0588,3.0588,0,3.0471,3.0481,3.0513,3.0519,3.0524,3.0539,3.0551,3.0563,3.057,3.057,3.0578,3.0571,3.059,3.0572,3.0598,3.0582,3.059,3.0592,3.0593,3.0595,3.0574,3.0607,3.0662,3.0668,3.0596,3.0596,3.0595,0,3.0505,3.0526,3.0549,3.0553,3.056,3.0571,3.0575,3.0581,3.0589,3.06,3.0605,3.0617,3.0624,3.0634,3.0632,3.0619,3.0659,3.064,3.066,3.066,3.0669,3.0668,3.0726,3.0673,3.0673,3.0673,3.0673,0,3.0547,3.0567,3.0564,3.0578,3.06,3.0595,3.0618,3.062,3.0626,3.064,3.0631,3.0645,3.064,3.0654,3.0652,3.0675,3.0678,3.0678,3.0678,3.0679,3.0679,3.0684,3.0682,3.0675,3.0674,3.0674,3.0674,0,3.0589,3.0588,3.0611,3.0616,3.0618,3.0635,3.0639,3.0652,3.0652,3.0671,3.0675,3.0675,3.069,3.0689,3.0706,3.0705,3.0733,3.0729,3.0731,3.073,3.075,3.0748,3.0813,3.0821,3.0763,3.0763,3.0764,0,3.0616,3.0631,3.0638,3.0647,3.0652,3.0666,3.0674,3.067,3.068,3.069,3.0702,3.0717,3.0728,3.0754,3.0756,3.077,3.0766,3.0788,3.0768,3.077,3.0767,3.0767,3.0768,3.0792,3.0793,3.0793,3.0793,0,3.0665,3.0663,3.0676,3.0688,3.0699,3.0708,3.0717,3.0725,3.0722,3.0733,3.0749,3.0758,3.0776,3.0791,3.0804,3.0808,3.0801,3.08,3.0805,3.0807,3.0808,3.0808,3.0742,3.0798,3.0798,3.0797,3.0797,3.0797,3.07,3.0714,3.0721,3.0735,3.0741,3.075,3.0763,3.0765,3.0778,3.0792,3.0789,3.0807,3.0815,3.0832,3.0838,3.0852,3.0844,3.0852,3.0854,3.0856,3.0858,3.0805,3.0854,3.0854,3.0854,3.0854,3.0854,0,3.0749,3.0753,3.0766,3.0779,3.079,3.0782,3.0792,3.0802,3.0818,3.0826,3.0838,3.0857,3.0872,3.0875,3.0889,3.0901,3.0898,3.0905,3.0904,3.0905,3.0864,3.0858,3.0907,3.0907,3.0907,3.0907,3.0907,3.0907,3.0775,3.0798,3.0798,3.0823,3.0827,3.0845,3.0851,3.0859,3.0866,3.0887,3.0899,3.0902,3.0908,3.0923,3.0937,3.0937,3.0943,3.0952,3.0951,3.0913,3.0908,3.0903,3.0897,3.0953,3.0953,3.0991,3.0991,3.0992]}]]